Regional Weather Roundup
Issued by NWS

Home | Current Version | Previous Version | Text Only | Print | Product List | Glossary On
Versions: 1 2 3 4 5 6 7 8 9 10 11 12 13 14 15 16 17 18 19 20 21 22 23 24 25 26 27 28
000
ASUS45 KBOU 221610
RWRCO

WEATHER ROUNDUP FOR COLORADO
NATIONAL WEATHER SERVICE DENVER/BOULDER CO
1000 AM MDT TUE MAY 22 2018

NOTE: "FAIR" INDICATES FEW OR NO CLOUDS BELOW 12000 FEET WITH NO
SIGNIFICANT WEATHER AND/OR OBSTRUCTIONS TO VISIBILITY.

COZ001>005-013-030-031-221700-
...NORTHWEST COLORADO...

CITY           SKY/WX    TMP DP  RH WIND       PRES   REMARKS
CRAIG          FAIR      63  39  41 W9        29.99F
HAYDEN         FAIR      65  39  38 CALM      30.01F
MEEKER         FAIR      63  35  35 CALM      30.00F
RANGELY        FAIR      67  35  31 W3        29.95S
RABBIT EARS PA FAIR      46  30  53 S7        30.23S
STEAMBOAT SPGS FAIR      60  39  44 W3        30.01F
WALDEN         FAIR      57  36  44 NW3       30.11F
$$

COZ006>008-011-221700-
...WEST CENTRAL VALLEYS...

CITY           SKY/WX    TMP DP  RH WIND       PRES   REMARKS
GRAND JUNCTION FAIR      71  36  27 SE10      29.92F
MONTROSE       FAIR      66  35  31 SE10G21   30.02S
EAGLE          FAIR      59  33  37 CALM      30.05F
RIFLE          FAIR      66  36  32 VRB3      29.97F
DELTA          FAIR      70  34  26 E6        29.98F
NUCLA          FAIR      68  32  26 N6        30.03F
$$

COZ017>023-064>068-221700-
...SOUTHWEST COLORADO...

CITY           SKY/WX    TMP DP  RH WIND       PRES   REMARKS
DURANGO        CLOUDY    61  44  53 E12       30.10F
CORTEZ         FAIR      67  44  43 SE14G23   30.03S
PAGOSA SPRINGS CLOUDY    56  40  55 CALM      30.17F THUNDER
TELLURIDE      TSTM      51  35  56 CALM      30.20S
WOLF CREEK PAS CLOUDY    36  36 100 S10G23    30.39F THUNDER
$$

COZ009-010-012-014-032>034-037-058>063-221700-
...CENTRAL COLORADO...

CITY           SKY/WX    TMP DP  RH WIND       PRES   REMARKS
ASPEN          FAIR      62  32  32 N7        30.06F
BUENA VISTA    FAIR      53  35  51 CALM      30.16F
COPPER MTN     FAIR      46  23  39 S14       30.33S
BERTHOUD PASS  FAIR      37  28  70 SE13G30   30.36S
COTTONWOOD PAS FAIR      55  37  50 E7        30.23F
GUNNISON       FAIR      54  35  48 NE6       30.13F
GRANBY         FAIR      54  37  51 CALM      30.12F
KREMMLING      FAIR      61  34  36 W5        30.09F
LEADVILLE      FAIR      47  33  58 S6        30.20F
MONARCH PASS   FAIR      43  30  61 MISG      30.44R
SALIDA         FAIR      58  40  51 NE3       30.20F
SUNLIGHT       FAIR      50  28  43 SW6       30.27F
WILKERSON PASS FAIR      45  28  53 SW9       30.33S
$$

COZ069>075-221700-
...SAN LUIS VALLEY/SANGRE DE CRISTO MOUNTAINS...

CITY           SKY/WX    TMP DP  RH WIND       PRES   REMARKS
ALAMOSA        PTSUNNY   47  44  90 SE5       30.19F
DEL NORTE      PTSUNNY   48  40  76 E6        30.21S
LA VETA PASS   FAIR      48  36  61 SW24G35   30.37R
SAGUACHE       NOT AVBL
$$

COZ035-036-038>040-221700-
...NORTHERN COLORADO FRONT RANGE...

CITY           SKY/WX    TMP DP  RH WIND       PRES   REMARKS
DENVER INTL AP PTSUNNY   66  51  58 NW6       29.99S
AURORA         PTSUNNY   64  47  53 CALM      30.00F
FRONT RANGE AP NOT AVBL
ERIE MUNI ARPT FAIR      66  49  55 NE5       30.03F
BOULDER MUN AP FAIR      64  46  52 N3        29.98S
CENTENNIAL     PTSUNNY   65  46  50 CALM      30.01F
BROOMFIELD     PTSUNNY   66  46  48 CALM      30.01S
FORT COLLINS   FAIR      65  54  67 VRB6      29.98F
LONGMONT       FAIR      69  51  52 CALM      29.99F
$$

COZ041-046-047-076>085-087-088-221700-
...PIKES PEAK/PALMER DIVIDE AND SOUTHERN FOOTHILLS...

CITY           SKY/WX    TMP DP  RH WIND       PRES   REMARKS
COLO. SPRINGS  PTSUNNY   67  41  38 CALM      30.04F
A. F. ACADEMY  FAIR      65  38  36 SE3       30.04F
SCHRIEVER AFB  NOT AVBL
CHEYENNE MTN   FAIR      61  37  41 S9        30.02F
ELLICOTT         N/A    N/A N/A N/A CALM      30.03S
FALCON         FAIR      65  36  34 CALM      30.08F
FORT CARSON    PTSUNNY   64  40  40 S3        30.01F
LIMON          FAIR      59  46  62 S9        30.01F
MONUMENT HILL  FAIR      61  41  48 W5        30.09F
CANON CITY     FAIR      70  41  35 W9G21     29.99F
WALSENBURG     FAIR      73  39  29 W16       30.03F
TRINIDAD       FAIR      67  49  52 E3        30.04R
$$

COZ042>045-048>051-090-091-221700-
...NORTHEAST COLORADO...

CITY           SKY/WX    TMP DP  RH WIND       PRES   REMARKS
GREELEY ARPT   FAIR      65  56  72 E7        29.97F
AKRON          FAIR      67  49  52 S15       29.97F
BURLINGTON     FAIR      72  51  47 SE17G26   29.97F
WRAY           FAIR      70  52  52 SE6       29.96F
YUMA           FAIR      64  41  42 S7        29.96F
STERLING       FAIR      66  50  55 CALM      29.95S
HOLYOKE        FAIR      73  52  46 S8        29.97S
FORT MORGAN    FAIR      63  47  56 S5        29.96F
$$

COZ086-089-092>099-221700-
...SOUTHEAST COLORADO...

CITY           SKY/WX    TMP DP  RH WIND       PRES   REMARKS
PUEBLO         FAIR      64  42  44 CALM      29.98F
LA JUNTA       FAIR      74  47  38 VRB7      29.95F
LAMAR          FAIR      77  48  35 SW10      29.93F
SPRINGFIELD    NOT AVBL
$$




USA.gov is the U.S. government's official web portal to all federal, state and local government web resources and services.